N0NPO Weather Reports


Display with metric or nautical units.
time (UTC)temp
F
wind
direction
speed
MPH
gust
MPH
rain 1hr
in
rain 24hr
in
rain mn
in
humidity
%
barometer
mb
20260906202332 87 188 3.0 12.0 0.00 0.57 0.57 1 1016.2
20260906201832 88 208 4.0 13.0 0.00 0.57 0.57 1 1016.4
20260906201327 86 180 5.0 11.0 0.00 0.57 0.57 1 1016.4
20260906200822 87 181 10.0 14.0 0.00 0.57 0.57 1 1016.5
20260906200318 87 193 7.0 8.0 0.00 0.57 0.57 1 1016.7
20260906195813 86 162 4.0 10.0 0.00 0.57 0.57 1 1016.5
20260906195309 86 180 5.0 11.0 0.00 0.57 0.57 1 1016.8
20260906194805 85 166 5.0 13.0 0.00 0.57 0.57 1 1016.8
20260906194301 84 180 2.0 9.0 0.00 0.57 0.57 1 1017.0
20260906193755 83 160 4.0 20.0 0.00 0.57 0.57 1 1017.4
20260906193250 83 132 19.0 23.0 0.00 0.57 0.57 1 1017.7
20260906192746 83 97 12.0 22.0 0.00 0.57 0.57 1 1017.6
20260906192246 83 135 3.0 18.0 0.00 0.57 0.57 1 1017.9
20260906191745 83 105 8.0 17.0 0.00 0.57 0.57 1 1017.7
20260906191240 83 154 3.0 17.0 0.00 0.57 0.57 1 1018.0
20260906190734 83 108 6.0 12.0 0.00 0.57 0.57 1 1018.0
20260906190228 82 115 12.0 12.0 0.00 0.57 0.57 1 1017.8
20260906185727 84 135 4.0 10.0 0.00 0.57 0.57 1 1017.8
20260906185227 84 177 5.0 8.0 0.00 0.57 0.57 1 1017.7
20260906184721 84 119 11.0 11.0 0.00 0.57 0.57 1 1017.9
20260906184217 84 168 1.0 7.0 0.00 0.57 0.57 1 1017.9
20260906183713 83 156 0.0 7.0 0.00 0.57 0.57 1 1018.0
20260906183209 83 121 8.0 9.0 0.00 0.57 0.57 1 1018.2
20260906182708 83 105 2.0 10.0 0.00 0.57 0.57 1 1018.2
20260906182204 82 177 3.0 7.0 0.00 0.57 0.57 1 1018.3
20260906181659 82 123 2.0 12.0 0.00 0.57 0.57 1 1018.4
20260906181155 81 131 3.0 9.0 0.00 0.57 0.57 1 1018.6
20260906180650 81 172 0.0 6.0 0.00 0.57 0.57 1 1018.6
20260906180145 79 125 5.0 8.0 0.00 0.57 0.57 1 1018.7
20260906175643 78 147 2.0 7.0 0.00 0.57 0.57 1 1018.9
20260906175138 77 143 2.0 5.0 0.00 0.57 0.57 1 1018.9
20260906174636 76 90 2.0 4.0 0.00 0.57 0.57 1 1019.1
20260906174132 75 105 1.0 3.0 0.00 0.57 0.57 1 1019.2
20260906173627 71 198 0.0 3.0 0.00 0.57 0.57 1 1019.2
20260906173122 71 127 3.0 5.0 0.00 0.57 0.57 1 1019.4
20260906172621 71 107 2.0 7.0 0.00 0.57 0.57 1 1019.5
20260906172117 70 119 4.0 6.0 0.00 0.57 0.57 1 1020.0
20260906171616 70 111 3.0 7.0 0.00 0.57 0.57 1 1020.4
20260906171112 69 85 4.0 4.0 0.00 0.57 0.57 1 1020.5
20260906170609 69 90 1.0 11.0 0.00 0.57 0.57 1 1020.7
20260906165558 68 132 4.0 11.0 0.00 0.57 0.57 1 1020.8
20260906165053 68 115 4.0 12.0 0.02 0.57 0.57 1 1020.8
20260906164552 67 97 5.0 10.0 0.05 0.57 0.57 1 1021.2
20260906164048 67 127 6.0 11.0 0.02 0.57 0.57 1 1021.5
20260906163543 67 129 7.0 10.0 0.02 0.57 0.57 1 1021.6
20260906163039 67 126 5.0 13.0 0.14 0.57 0.57 1 1021.6
20260906162536 66 144 2.0 9.0 0.21 0.56 0.56 1 1022.0
20260906162031 67 147 0.0 5.0 0.17 0.54 0.54 1 1022.7
20260906161526 67 132 2.0 8.0 0.07 0.52 0.52 1 1023.1
20260906161025 67 116 3.0 7.0 0.05 0.51 0.51 1 1022.7
20260906160524 67 75 2.0 7.0 0.07 0.50 0.50 1 1022.7
20260906160023 67 109 2.0 10.0 0.35 0.50 0.50 1 1022.5
20260906155520 67 184 2.0 11.0 0.76 0.49 0.49 1 1022.0
20260906155017 67 108 8.0 12.0 0.97 0.43 0.43 1 1021.6
20260906154512 66 196 6.0 12.0 0.76 0.34 0.34 1 1021.1
20260906154011 66 218 5.0 13.0 0.85 0.25 0.25 1 1021.1
20260906153509 66 193 12.0 22.0 0.90 0.20 0.20 1 1020.9
20260906153005 68 196 13.0 24.0 0.38 0.09 0.09 1 1020.0
20260906152459 68 212 4.0 11.0 0.17 0.04 0.04 1 1020.1
20260906151958 68 218 3.0 9.0 0.02 0.02 0.02 1 1020.1
20260906151454 69 174 7.0 13.0 0.00 0.02 0.02 1 1020.0
20260906150950 68 106 7.0 10.0 0.00 0.02 0.02 1 1020.1
20260906150445 68 179 5.0 12.0 0.02 0.02 0.02 1 1019.9
20260906145944 68 189 2.0 10.0 0.02 0.01 0.01 1 1020.0
20260906145444 69 171 10.0 17.0 0.07 0.01 0.01 1 1020.1
20260906144938 71 182 6.0 18.0 0.02 0.00 0.00 1 1020.5
20260906144433 75 165 7.0 13.0 0.00 0.00 0.00 1 1019.9
20260906143929 74 118 4.0 7.0 0.00 0.00 0.00 1 1019.9
20260906143424 74 127 4.0 10.0 0.00 0.00 0.00 1 1019.7
20260906142920 74 135 5.0 9.0 0.00 0.00 0.00 1 1019.7
20260906142419 75 90 4.0 8.0 0.00 0.00 0.00 1 1019.3
20260906141914 74 180 0.0 2.0 0.00 0.00 0.00 1 1018.8
20260906141414 74 94 0.0 3.0 0.00 0.00 0.00 1 1018.6
20260906140908 74 90 0.0 3.0 0.00 0.00 0.00 1 1018.8
20260906140403 74 66 2.0 2.0 0.00 0.00 0.00 1 1018.4
20260906135901 74 5 1.0 2.0 0.00 0.00 0.00 1 1018.2
20260906135354 74 324 2.0 2.0 0.00 0.00 0.00 1 1018.2
20260906134850 74 331 1.0 3.0 0.00 0.00 0.00 1 1018.2
20260906134345 74 270 3.0 3.0 0.00 0.00 0.00 1 1018.0
20260906133841 74 285 3.0 3.0 0.00 0.00 0.00 1 1017.6
20260906133336 75 259 2.0 3.0 0.00 0.00 0.00 1 1017.8
20260906132831 75 241 3.0 5.0 0.00 0.00 0.00 1 1018.1
20260906132321 75 264 2.0 2.0 0.00 0.00 0.00 1 1018.0
20260906131816 75 109 3.0 3.0 0.00 0.00 0.00 1 1018.4
20260906131312 75 77 2.0 4.0 0.00 0.00 0.00 1 1018.1
20260906130808 75 99 0.0 2.0 0.00 0.00 0.00 1 1018.2
20260906130307 75 103 1.0 3.0 0.00 0.00 0.00 1 1018.0
20260906125806 75 180 0.0 1.0 0.00 0.00 0.00 1 1018.1
20260906125306 75 90 0.0 2.0 0.00 0.00 0.00 1 1017.7
20260906124758 75 95 2.0 4.0 0.00 0.00 0.00 1 1017.8
20260906124254 75 90 1.0 3.0 0.00 0.00 0.00 1 1017.5
20260906123753 75 90 2.0 4.0 0.00 0.00 0.00 1 1017.4
20260906123248 75 98 5.0 6.0 0.00 0.00 0.00 1 1017.2
20260906122748 75 95 4.0 5.0 0.00 0.00 0.00 1 1017.2
20260906122243 75 90 3.0 3.0 0.00 0.00 0.00 1 1016.9
20260906121740 76 111 3.0 3.0 0.00 0.00 0.00 1 1016.7
20260906121236 76 93 3.0 5.0 0.00 0.00 0.00 1 1016.8
20260906120731 76 114 3.0 4.0 0.00 0.00 0.00 1 1016.8
20260906120228 77 116 3.0 4.0 0.00 0.00 0.00 1 1016.9
20260906115723 76 96 2.0 3.0 0.00 0.00 0.00 1 1017.0
20260906115218 76 124 3.0 3.0 0.00 0.00 0.00 1 1017.0
20260906114717 76 78 2.0 3.0 0.00 0.00 0.00 1 1016.8
20260906114212 76 79 2.0 3.0 0.00 0.00 0.00 1 1017.0
20260906113708 76 98 1.0 2.0 0.00 0.00 0.00 1 1016.9
20260906113207 76 346 0.0 1.0 0.00 0.00 0.00 1 1017.0
20260906112707 76 98 1.0 4.0 0.00 0.00 0.00 1 1016.9
20260906112204 76 90 0.0 2.0 0.00 0.00 0.00 1 1017.0
20260906111703 76 127 0.0 3.0 0.00 0.00 0.00 1 1016.9
20260906111158 76 110 2.0 3.0 0.00 0.00 0.00 1 1017.0
20260906110653 76 95 2.0 3.0 0.00 0.00 0.00 1 1017.0
20260906110148 76 90 0.0 3.0 0.00 0.00 0.00 1 1017.0
20260906105642 76 115 2.0 3.0 0.00 0.00 0.00 1 1016.9
20260906105138 76 75 2.0 2.0 0.00 0.00 0.00 1 1017.1
20260906104638 76 99 0.0 3.0 0.00 0.00 0.00 1 1017.0
20260906104137 76 90 1.0 3.0 0.00 0.00 0.00 1 1017.0
20260906103635 76 120 2.0 5.0 0.00 0.00 0.00 1 1017.1
20260906103130 76 71 1.0 4.0 0.00 0.00 0.00 1 1017.2
20260906102626 76 106 2.0 4.0 0.00 0.00 0.00 1 1017.2
20260906102120 76 120 3.0 6.0 0.00 0.00 0.00 1 1017.1
20260906101615 77 118 4.0 6.0 0.00 0.00 0.00 1 1017.0
20260906101115 77 114 5.0 9.0 0.00 0.00 0.00 1 1017.0
20260906100610 77 127 3.0 8.0 0.00 0.00 0.00 1 1017.1
20260906100105 77 145 3.0 8.0 0.00 0.00 0.00 1 1017.1
20260906095604 77 112 2.0 6.0 0.00 0.00 0.00 1 1017.0
20260906095100 76 87 4.0 7.0 0.00 0.00 0.00 1 1017.2
20260906094559 76 121 4.0 7.0 0.00 0.00 0.00 1 1017.0
20260906094055 76 93 3.0 9.0 0.00 0.00 0.00 1 1016.9
20260906093551 77 112 4.0 6.0 0.00 0.00 0.00 1 1016.9
20260906093045 77 102 6.0 10.0 0.00 0.00 0.00 1 1017.0
20260906092540 76 166 6.0 12.0 0.00 0.00 0.00 1 1016.8
20260906092036 76 166 3.0 7.0 0.00 0.00 0.00 1 1016.7
20260906091531 77 110 3.0 6.0 0.00 0.00 0.00 1 1016.9
20260906091028 77 127 4.0 6.0 0.00 0.00 0.00 1 1016.8
20260906090522 77 98 4.0 7.0 0.00 0.00 0.00 1 1017.0
20260906090017 77 93 4.0 7.0 0.00 0.00 0.00 1 1016.9
20260906085516 77 98 3.0 9.0 0.00 0.00 0.00 1 1016.8
20260906085015 77 101 3.0 9.0 0.00 0.00 0.00 1 1017.0
20260906084510 78 169 2.0 5.0 0.00 0.00 0.00 1 1017.1
20260906084009 78 119 2.0 7.0 0.00 0.00 0.00 1 1017.0
20260906083505 78 90 3.0 6.0 0.00 0.00 0.00 1 1017.2
20260906083004 78 144 2.0 9.0 0.00 0.00 0.00 1 1017.0
20260906082459 78 159 4.0 10.0 0.00 0.00 0.00 1 1017.3
20260906081955 78 117 3.0 11.0 0.00 0.00 0.00 1 1017.2
20260906081450 78 110 8.0 11.0 0.00 0.00 0.00 1 1017.3
20260906080946 78 83 5.0 10.0 0.00 0.00 0.00 1 1017.3
20260906080442 78 119 6.0 12.0 0.00 0.00 0.00 1 1017.2
20260906075937 77 137 6.0 9.0 0.00 0.00 0.00 1 1017.2
20260906075432 78 73 6.0 11.0 0.00 0.00 0.00 1 1017.1
20260906074927 78 121 10.0 13.0 0.00 0.00 0.00 1 1016.8
20260906074421 78 106 7.0 12.0 0.00 0.00 0.00 1 1016.9
20260906073920 78 118 6.0 10.0 0.00 0.00 0.00 1 1016.7
20260906073415 78 125 5.0 10.0 0.00 0.00 0.00 1 1016.8
20260906072911 78 131 3.0 8.0 0.00 0.00 0.00 1 1016.7
20260906072406 78 101 3.0 9.0 0.00 0.00 0.00 1 1016.7
20260906071903 78 117 5.0 7.0 0.00 0.00 0.00 1 1016.7
20260906071358 78 142 6.0 10.0 0.00 0.00 0.00 1 1016.7
20260906070853 78 98 5.0 9.0 0.00 0.00 0.00 1 1016.9
20260906070349 78 132 5.0 9.0 0.00 0.00 0.00 1 1016.8
20260906065845 78 121 2.0 12.0 0.00 0.00 0.00 1 1016.7
20260906065339 78 94 3.0 10.0 0.00 0.00 0.00 1 1016.8
20260906064834 78 152 3.0 10.0 0.00 0.00 0.00 1 1016.8
20260906064330 78 141 3.0 9.0 0.00 0.00 0.00 1 1016.7
20260906063824 78 112 3.0 9.0 0.00 0.00 0.00 1 1016.7
20260906063320 78 128 2.0 6.0 0.00 0.00 0.00 1 1016.5
20260906062815 78 112 2.0 11.0 0.00 0.00 0.00 1 1016.5
20260906062314 78 117 2.0 9.0 0.00 0.00 0.00 1 1016.3
20260906061810 78 90 7.0 9.0 0.00 0.00 0.00 1 1016.4
20260906061307 78 106 5.0 7.0 0.00 0.00 0.00 1 1016.4
20260906060801 78 160 3.0 5.0 0.00 0.00 0.00 1 1016.5
20260906060259 78 109 4.0 8.0 0.00 0.00 0.00 1 1016.2
20260906055754 78 90 1.0 10.0 0.00 0.00 0.00 1 1016.5
20260906055250 78 117 2.0 8.0 0.00 0.00 0.00 1 1016.5
20260906054745 78 160 1.0 5.0 0.00 0.00 0.00 1 1016.5
20260906054240 78 142 4.0 11.0 0.00 0.00 0.00 1 1016.4
20260906053737 77 132 7.0 11.0 0.00 0.00 0.00 1 1016.5
20260906053232 77 107 3.0 9.0 0.00 0.00 0.00 1 1016.4
20260906052727 77 101 5.0 8.0 0.00 0.00 0.00 1 1016.7
20260906052223 77 113 5.0 9.0 0.00 0.00 0.00 1 1016.7
20260906051720 78 110 5.0 12.0 0.00 0.00 0.00 1 1016.5
20260906051219 77 103 5.0 8.0 0.00 0.00 0.00 1 1016.5
20260906050715 77 96 5.0 10.0 0.00 0.00 0.00 1 1016.8
20260906050210 77 75 5.0 10.0 0.00 0.00 0.00 1 1016.8
20260906045708 77 105 6.0 9.0 0.00 0.00 0.00 1 1016.8
20260906045203 77 96 5.0 9.0 0.00 0.00 0.00 1 1016.9
20260906044659 77 106 4.0 10.0 0.00 0.00 0.00 1 1017.0
20260906044154 77 110 6.0 9.0 0.00 0.00 0.00 1 1017.0
20260906043650 78 122 9.0 9.0 0.00 0.00 0.00 1 1016.8
20260906043145 78 93 3.0 9.0 0.00 0.00 0.00 1 1017.1
20260906042645 78 110 4.0 7.0 0.00 0.00 0.00 1 1017.1
20260906042139 78 99 5.0 9.0 0.00 0.00 0.00 1 1017.3
20260906041635 78 111 11.0 11.0 0.00 0.00 0.00 1 1017.4
20260906041130 78 103 9.0 11.0 0.00 0.00 0.00 1 1017.3
20260906040625 78 94 5.0 7.0 0.00 0.00 0.00 1 1017.4
20260906040121 78 94 3.0 8.0 0.00 0.00 0.00 1 1017.4
20260906035616 78 97 6.0 8.0 0.00 0.00 0.00 1 1017.5
20260906035112 78 94 5.0 9.0 0.00 0.00 0.00 1 1017.4
20260906034612 78 103 6.0 9.0 0.00 0.00 0.00 1 1017.6
20260906034107 78 115 6.0 8.0 0.00 0.00 0.00 1 1017.5
20260906033602 78 87 7.0 11.0 0.00 0.00 0.00 1 1017.5
20260906033057 79 99 6.0 12.0 0.00 0.00 0.00 1 1017.5
20260906032553 79 99 8.0 11.0 0.00 0.00 0.00 1 1017.3
20260906032048 79 115 9.0 14.0 0.00 0.00 0.00 1 1017.6
20260906031544 79 100 10.0 10.0 0.00 0.00 0.00 1 1017.6
20260906031039 79 111 9.0 14.0 0.00 0.00 0.00 1 1017.5
20260906030538 79 114 5.0 12.0 0.00 0.00 0.00 1 1017.6
20260906030037 80 112 9.0 16.0 0.00 0.00 0.00 1 1017.4
20260906025532 80 98 12.0 18.0 0.00 0.00 0.00 1 1017.5
20260906025030 80 92 5.0 12.0 0.00 0.00 0.00 1 1017.5
20260906024525 80 113 15.0 16.0 0.00 0.00 0.00 1 1017.3
20260906024020 80 77 7.0 24.0 0.00 0.00 0.00 1 1017.3
20260906023516 80 69 14.0 20.0 0.00 0.00 0.00 1 1017.1
20260906023011 80 100 12.0 17.0 0.00 0.00 0.00 1 1017.0
20260906022506 80 90 9.0 19.0 0.00 0.00 0.00 1 1016.8
20260906022001 81 57 14.0 21.0 0.00 0.00 0.00 1 1016.8
20260906021456 81 96 12.0 19.0 0.00 0.00 0.00 1 1016.5
20260906020951 81 66 6.0 13.0 0.00 0.00 0.00 1 1016.7
20260906020445 81 62 13.0 23.0 0.00 0.00 0.00 1 1016.4
20260906015944 81 69 7.0 17.0 0.00 0.00 0.00 1 1016.5
20260906015444 81 90 16.0 20.0 0.00 0.00 0.00 1 1016.5
20260906014944 81 79 7.0 19.0 0.00 0.00 0.00 1 1016.4
20260906014438 81 68 9.0 21.0 0.00 0.00 0.00 1 1016.2
20260906013934 81 50 11.0 19.0 0.00 0.00 0.00 1 1016.2
20260906013429 81 87 8.0 18.0 0.00 0.00 0.00 1 1016.5
20260906012925 81 79 7.0 22.0 0.00 0.00 0.00 1 1016.5
20260906012425 81 95 8.0 16.0 0.00 0.00 0.00 1 1016.4
20260906011924 81 65 7.0 23.0 0.00 0.00 0.00 1 1016.4
20260906011420 81 69 6.0 15.0 0.00 0.00 0.00 1 1016.5
20260906010916 81 81 11.0 15.0 0.00 0.00 0.00 1 1016.7
20260906010411 81 55 12.0 19.0 0.00 0.00 0.00 1 1016.5
20260906005907 81 37 5.0 23.0 0.00 0.00 0.00 1 1016.4
20260906005406 81 34 11.0 19.0 0.00 0.00 0.00 1 1016.5
20260906004904 81 36 9.0 17.0 0.00 0.00 0.00 1 1016.3
20260906004359 82 66 6.0 21.0 0.00 0.00 0.00 1 1016.1
20260906003855 82 61 10.0 20.0 0.00 0.00 0.00 1 1016.1
20260906003350 83 60 4.0 15.0 0.00 0.00 0.00 1 1016.2
20260906002846 83 56 4.0 11.0 0.00 0.00 0.00 1 1016.0
20260906002344 82 78 10.0 12.0 0.00 0.00 0.00 1 1016.2
20260906001840 82 73 7.0 17.0 0.00 0.00 0.00 1 1016.4
20260906001336 83 35 14.0 30.0 0.00 0.00 0.00 1 1016.4
20260906000831 84 50 12.0 18.0 0.00 0.00 0.00 1 1016.7
20260906000326 85 50 6.0 22.0 0.00 0.00 0.00 1 1016.8
20260905235826 87 39 5.0 12.0 0.00 0.00 0.00 1 1016.1
20260905235326 87 35 3.0 7.0 0.00 0.00 0.00 1 1015.9
20260905234821 87 27 5.0 9.0 0.00 0.00 0.00 1 1016.0
20260905234316 87 18 7.0 11.0 0.00 0.00 0.00 1 1015.8
20260905233811 87 0 4.0 12.0 0.00 0.00 0.00 1 1015.6
20260905233306 88 359 6.0 12.0 0.00 0.00 0.00 1 1015.7
20260905232805 92 353 4.0 8.0 0.00 0.00 0.00 1 1015.8
20260905232301 93 2 3.0 8.0 0.00 0.00 0.00 1 1015.7
20260905231757 95 281 0.0 4.0 0.00 0.00 0.00 1 1015.7
20260905231252 93 270 0.0 3.0 0.00 0.00 0.00 1 1015.5
20260905230748 92 295 5.0 8.0 0.00 0.00 0.00 1 1015.8
20260905230246 93 304 3.0 4.0 0.00 0.00 0.00 1 1015.7
20260905225746 92 334 1.0 6.0 0.00 0.00 0.00 1 1015.8
20260905225241 94 298 8.0 9.0 0.00 0.00 0.00 1 1015.7
20260905224740 94 24 0.0 7.0 0.00 0.00 0.00 1 1015.6
20260905224236 95 0 5.0 8.0 0.00 0.00 0.00 1 1015.5
20260905223731 94 275 6.0 6.0 0.00 0.00 0.00 1 1015.3
20260905223228 93 283 7.0 14.0 0.00 0.00 0.00 1 1015.5
20260905222724 91 248 5.0 14.0 0.00 0.00 0.00 1 1015.4
20260905222223 96 296 7.0 20.0 0.00 0.00 0.00 1 1015.4
20260905221719 96 222 10.0 19.0 0.00 0.00 0.00 1 1015.1
20260905221216 97 251 15.0 17.0 0.00 0.00 0.00 1 1015.1
20260905220711 98 250 7.0 10.0 0.00 0.00 0.00 1 1014.6
20260905220207 98 234 6.0 12.0 0.00 0.00 0.00 1 1014.8
20260905215706 99 231 5.0 11.0 0.00 0.00 0.00 1 1014.5
20260905215202 102 209 3.0 9.0 0.00 0.00 0.00 1 1014.4
20260905214658 102 168 1.0 7.0 0.00 0.00 0.00 1 1014.2
20260905214153 102 123 2.0 10.0 0.00 0.00 0.00 1 1014.1
20260905213648 101 233 5.0 9.0 0.00 0.00 0.00 1 1014.0
20260905213144 102 134 4.0 7.0 0.00 0.00 0.00 1 1014.3
20260905212639 101 152 2.0 12.0 0.00 0.00 0.00 1 1014.2
20260905212138 102 165 5.0 13.0 0.00 0.00 0.00 1 1014.4
20260905211633 102 205 4.0 6.0 0.00 0.00 0.00 1 1014.2
20260905211128 101 227 7.0 9.0 0.00 0.00 0.00 1 1014.4
20260905210625 101 192 2.0 8.0 0.00 0.00 0.00 1 1014.4
20260905210119 100 180 2.0 11.0 0.00 0.00 0.00 1 1014.4
20260905205619 100 180 6.0 11.0 0.00 0.00 0.00 1 1014.5
20260905205118 100 184 2.0 5.0 0.00 0.00 0.00 1 1014.4
20260905204612 100 198 0.0 7.0 0.00 0.00 0.00 1 1014.3
20260905204108 100 157 0.0 7.0 0.00 0.00 0.00 1 1014.4
20260905203602 100 79 3.0 5.0 0.00 0.00 0.00 1 1014.8
20260905203058 99 129 5.0 7.0 0.00 0.00 0.00 1 1014.5